This is the latest recevied weather packets stored in our database for station/object EB1TK-13. If no packets are shown the sender has not sent any weather packets the latest 10 day(s).
| Time | Temp. | Humidity | Pressure | Rain* | Wind** | Luminosity | Snow |
|---|---|---|---|---|---|---|---|
| 1778143937 | 14.44° C | 86% | 1010.9 hPa | 0 mm | - | - | - |
| 1778143337 | 15° C | 85% | 1010.9 hPa | 0 mm | - | - | - |
| 1778142737 | 15° C | 86% | 1010.7 hPa | 0 mm | - | - | - |
| 1778142135 | 14.44° C | 86% | 1010.8 hPa | 0 mm | - | - | - |
| 1778141536 | 15° C | 86% | 1011 hPa | 0 mm | - | - | - |
| 1778140936 | 14.44° C | 85% | 1010.9 hPa | 0 mm | - | - | - |
| 1778140336 | 14.44° C | 85% | 1011.2 hPa | 0 mm | - | - | - |
| 1778139737 | 14.44° C | 85% | 1011.2 hPa | 0 mm | - | - | - |
| 1778139137 | 14.44° C | 87% | 1011.1 hPa | 0 mm | - | - | - |
| 1778138535 | 13.89° C | 88% | 1011.2 hPa | 0 mm | - | - | - |
| 1778137935 | 13.33° C | 88% | 1011.1 hPa | 0 mm | - | - | - |
| 1778137335 | 13.33° C | 89% | 1011 hPa | 0 mm | - | - | - |
| 1778136736 | 13.33° C | 91% | 1011.2 hPa | 0 mm | - | - | - |
| 1778136137 | 12.78° C | 92% | 1011.1 hPa | 0 mm | - | - | - |
| 1778135537 | 12.22° C | 92% | 1011.4 hPa | 0 mm | - | - | - |
| 1778134937 | 12.22° C | 91% | 1011.3 hPa | 0 mm | - | - | - |
| 1778134335 | 12.22° C | 91% | 1011.2 hPa | 0 mm | - | - | - |
| 1778133736 | 12.22° C | 91% | 1011.1 hPa | 0 mm | - | - | - |
| 1778133136 | 12.22° C | 92% | 1011.1 hPa | 0 mm | - | - | - |
| 1778132536 | 11.67° C | 92% | 1011.2 hPa | 0 mm | - | - | - |
| 1778131936 | 11.67° C | 92% | 1011.2 hPa | 0 mm | - | - | - |
| 1778131337 | 12.22° C | 91% | 1011.1 hPa | 0 mm | - | - | - |
| 1778130737 | 12.22° C | 91% | 1011 hPa | 0 mm | - | - | - |
| 1778130135 | 12.22° C | 91% | 1011.1 hPa | 0 mm | - | - | - |
| 1778129535 | 12.22° C | 91% | 1011.2 hPa | 0 mm | - | - | - |
* Rain latest hour (hover to see other rain measurements)
** Current wind speed in m/s (hover to see current wind gust speed)